Time,TemperatureF,DewpointF,PressureIn,WindDirection,WindDirectionDegrees,WindSpeedMPH,WindSpeedGustMPH,Humidity,HourlyPrecipIn,Conditions,Clouds,dailyrainin,SoftwareType,DateUTC
2013-04-21 00:01:00,36.0,25.4,30.40,WNW,293,0.2,0.7,65,0.00,,,0.00,WUHU216HW,2013-04-21 04:01:00,
2013-04-21 00:06:00,35.8,25.2,30.40,NNE,23,0.4,2.2,65,0.00,,,0.00,WUHU216HW,2013-04-21 04:06:00,
2013-04-21 00:11:00,35.8,25.2,30.40,NNE,23,0.0,2.2,65,0.00,,,0.00,WUHU216HW,2013-04-21 04:11:00,
2013-04-21 00:16:00,35.8,25.2,30.40,NNE,23,0.0,1.8,65,0.00,,,0.00,WUHU216HW,2013-04-21 04:16:00,
2013-04-21 01:58:00,33.8,25.0,30.42,NNW,338,0.0,0.0,70,0.00,,,0.00,WUHU216HW,2013-04-21 05:58:00,
2013-04-21 02:03:00,33.7,24.5,30.42,NNW,338,1.1,1.1,69,0.00,,,0.00,WUHU216HW,2013-04-21 06:03:00,
2013-04-21 02:08:00,33.7,24.5,30.42,NNW,338,1.1,1.1,69,0.00,,,0.00,WUHU216HW,2013-04-21 06:08:00,
2013-04-21 02:58:00,32.8,24.4,30.43,WNW,293,0.9,0.9,71,0.00,,,0.00,WUHU216HW,2013-04-21 06:58:00,
2013-04-21 03:03:00,32.8,24.4,30.43,WNW,293,0.9,0.9,71,0.00,,,0.00,WUHU216HW,2013-04-21 07:03:00,
2013-04-21 03:58:00,31.3,24.3,30.45,WNW,293,0.4,0.4,75,0.00,,,0.00,WUHU216HW,2013-04-21 07:58:00,
2013-04-21 04:03:00,31.1,24.1,30.45,WNW,293,0.7,0.7,75,0.00,,,0.00,WUHU216HW,2013-04-21 08:03:00,
2013-04-21 04:08:00,30.8,24.1,30.45,WNW,293,1.1,1.1,76,0.00,,,0.00,WUHU216HW,2013-04-21 08:08:00,
2013-04-21 04:13:00,30.6,24.0,30.45,WNW,293,0.4,1.1,76,0.00,,,0.00,WUHU216HW,2013-04-21 08:13:00,
2013-04-21 04:18:00,30.6,24.0,30.45,WNW,293,0.0,1.1,76,0.00,,,0.00,WUHU216HW,2013-04-21 08:18:00,
2013-04-21 04:23:00,30.6,24.0,30.45,WNW,293,0.4,1.1,76,0.00,,,0.00,WUHU216HW,2013-04-21 08:23:00,
2013-04-21 04:28:00,30.8,24.1,30.45,WNW,293,0.4,0.7,76,0.00,,,0.00,WUHU216HW,2013-04-21 08:28:00,
2013-04-21 04:33:00,30.8,24.1,30.45,WNW,293,0.4,0.7,76,0.00,,,0.00,WUHU216HW,2013-04-21 08:33:00,
2013-04-21 04:57:00,30.1,23.7,30.46,WNW,293,0.4,0.4,77,0.00,,,0.00,WUHU216HW,2013-04-21 08:57:00,
2013-04-21 05:03:00,29.9,23.2,30.46,WNW,293,0.0,1.1,76,0.00,,,0.00,WUHU216HW,2013-04-21 09:03:00,
2013-04-21 05:08:00,29.9,23.5,30.46,WNW,293,0.4,1.1,77,0.00,,,0.00,WUHU216HW,2013-04-21 09:08:00,
2013-04-21 05:13:00,30.1,23.7,30.46,WNW,293,0.9,1.1,77,0.00,,,0.00,WUHU216HW,2013-04-21 09:13:00,
2013-04-21 05:18:00,30.1,23.7,30.47,WNW,293,0.2,1.3,77,0.00,,,0.00,WUHU216HW,2013-04-21 09:18:00,
2013-04-21 05:23:00,29.9,23.5,30.47,WNW,293,0.4,1.3,77,0.00,,,0.00,WUHU216HW,2013-04-21 09:23:00,
2013-04-21 05:28:00,29.5,23.1,30.47,WNW,293,0.2,1.8,77,0.00,,,0.00,WUHU216HW,2013-04-21 09:28:00,
2013-04-21 05:33:00,29.7,23.3,30.47,WNW,293,1.1,1.8,77,0.00,,,0.00,WUHU216HW,2013-04-21 09:33:00,
2013-04-21 05:38:00,29.9,23.5,30.47,WNW,293,0.9,1.8,77,0.00,,,0.00,WUHU216HW,2013-04-21 09:38:00,
2013-04-21 05:43:00,29.5,23.1,30.47,WNW,293,0.7,1.8,77,0.00,,,0.00,WUHU216HW,2013-04-21 09:43:00,
2013-04-21 05:48:00,29.3,23.0,30.47,WNW,293,1.1,1.3,77,0.00,,,0.00,WUHU216HW,2013-04-21 09:48:00,
2013-04-21 05:53:00,29.2,22.9,30.47,WNW,293,0.9,1.3,77,0.00,,,0.00,WUHU216HW,2013-04-21 09:53:00,
2013-04-21 05:58:00,29.2,22.9,30.47,WNW,293,0.9,1.3,77,0.00,,,0.00,WUHU216HW,2013-04-21 09:58:00,
2013-04-21 06:03:00,29.0,23.0,30.47,WNW,293,0.9,1.1,78,0.00,,,0.00,WUHU216HW,2013-04-21 10:03:00,
2013-04-21 06:08:00,29.0,23.0,30.48,WNW,293,0.0,1.1,78,0.00,,,0.00,WUHU216HW,2013-04-21 10:08:00,
2013-04-21 06:13:00,29.2,23.1,30.48,WNW,293,0.4,0.4,78,0.00,,,0.00,WUHU216HW,2013-04-21 10:13:00,
2013-04-21 06:18:00,29.5,23.1,30.49,WNW,293,0.0,1.1,77,0.00,,,0.00,WUHU216HW,2013-04-21 10:18:00,
2013-04-21 06:23:00,29.7,23.3,30.49,WNW,293,0.2,1.1,77,0.00,,,0.00,WUHU216HW,2013-04-21 10:23:00,
2013-04-21 06:28:00,29.7,23.3,30.49,WNW,293,0.0,1.1,77,0.00,,,0.00,WUHU216HW,2013-04-21 10:28:00,
2013-04-21 06:33:00,29.9,23.9,30.49,WNW,293,0.0,0.4,78,0.00,,,0.00,WUHU216HW,2013-04-21 10:33:00,
2013-04-21 06:38:00,29.9,23.9,30.49,WNW,293,0.4,0.4,78,0.00,,,0.00,WUHU216HW,2013-04-21 10:38:00,
2013-04-21 06:43:00,29.9,23.9,30.49,WNW,293,0.4,0.4,78,0.00,,,0.00,WUHU216HW,2013-04-21 10:43:00,
2013-04-21 06:58:00,28.6,22.6,30.51,WNW,293,0.4,0.4,78,0.00,,,0.00,WUHU216HW,2013-04-21 10:58:00,
2013-04-21 07:03:00,28.4,22.4,30.51,WNW,293,0.7,1.1,78,0.00,,,0.00,WUHU216HW,2013-04-21 11:03:00,
2013-04-21 07:08:00,28.4,22.8,30.51,WNW,293,0.4,1.1,79,0.00,,,0.00,WUHU216HW,2013-04-21 11:08:00,
2013-04-21 07:13:00,28.4,22.8,30.52,WNW,293,0.7,1.1,79,0.00,,,0.00,WUHU216HW,2013-04-21 11:13:00,
2013-04-21 07:18:00,28.6,23.0,30.52,WNW,293,0.7,1.1,79,0.00,,,0.00,WUHU216HW,2013-04-21 11:18:00,
2013-04-21 07:23:00,28.4,23.0,30.52,WNW,293,0.4,1.3,80,0.00,,,0.00,WUHU216HW,2013-04-21 11:23:00,
2013-04-21 07:28:00,28.6,23.5,30.52,WNW,293,1.1,1.3,81,0.00,,,0.00,WUHU216HW,2013-04-21 11:28:00,
2013-04-21 07:33:00,28.8,23.7,30.52,NW,315,1.1,1.6,81,0.00,,,0.00,WUHU216HW,2013-04-21 11:33:00,
2013-04-21 07:38:00,29.2,24.0,30.53,NNW,338,1.1,1.6,81,0.00,,,0.00,WUHU216HW,2013-04-21 11:38:00,
2013-04-21 07:43:00,29.5,24.4,30.53,NW,315,0.7,1.8,81,0.00,,,0.00,WUHU216HW,2013-04-21 11:43:00,
2013-04-21 07:48:00,29.9,24.8,30.54,NW,315,1.1,1.8,81,0.00,,,0.00,WUHU216HW,2013-04-21 11:48:00,
2013-04-21 07:53:00,30.2,25.1,30.54,NW,315,1.1,1.6,81,0.00,,,0.00,WUHU216HW,2013-04-21 11:53:00,
2013-04-21 07:58:00,30.6,25.5,30.54,WNW,293,1.8,2.2,81,0.00,,,0.00,WUHU216HW,2013-04-21 11:58:00,
2013-04-21 08:03:00,30.8,25.7,30.54,NW,315,1.1,2.2,81,0.00,,,0.00,WUHU216HW,2013-04-21 12:03:00,
2013-04-21 08:08:00,31.3,26.2,30.55,NNW,338,1.3,1.8,81,0.00,,,0.00,WUHU216HW,2013-04-21 12:08:00,
2013-04-21 08:13:00,31.7,26.6,30.55,NNW,338,1.1,1.8,81,0.00,,,0.00,WUHU216HW,2013-04-21 12:13:00,
2013-04-21 08:18:00,32.2,27.1,30.55,NNW,338,0.9,1.6,81,0.00,,,0.00,WUHU216HW,2013-04-21 12:18:00,
2013-04-21 08:22:00,32.6,27.5,30.55,NW,315,0.7,1.3,81,0.00,,,0.00,WUHU216HW,2013-04-21 12:22:00,
2013-04-21 08:27:00,32.6,27.5,30.55,NW,315,0.7,1.3,81,0.00,,,0.00,WUHU216HW,2013-04-21 12:27:00,
2013-04-21 08:58:00,36.4,28.5,30.56,North,0,5.8,5.8,73,0.00,,,0.00,WUHU216HW,2013-04-21 12:58:00,
2013-04-21 09:03:00,36.9,29.1,30.56,North,0,3.6,5.8,73,0.00,,,0.00,WUHU216HW,2013-04-21 13:03:00,
2013-04-21 09:08:00,36.9,29.1,30.56,North,0,3.6,5.8,73,0.00,,,0.00,WUHU216HW,2013-04-21 13:08:00,
2013-04-21 09:58:00,47.9,30.6,30.56,NNW,338,5.8,5.8,51,0.00,,,0.00,WUHU216HW,2013-04-21 13:58:00,
2013-04-21 10:03:00,47.9,29.0,30.56,West,270,7.2,8.1,48,0.00,,,0.00,WUHU216HW,2013-04-21 14:03:00,
2013-04-21 10:08:00,47.2,28.4,30.56,WNW,293,4.3,9.4,48,0.00,,,0.00,WUHU216HW,2013-04-21 14:08:00,
2013-04-21 10:13:00,47.9,29.0,30.56,North,0,5.4,9.4,48,0.00,,,0.00,WUHU216HW,2013-04-21 14:13:00,
2013-04-21 10:18:00,48.6,28.6,30.57,NNW,338,6.7,9.6,46,0.00,,,0.00,WUHU216HW,2013-04-21 14:18:00,
2013-04-21 10:23:00,47.9,26.8,30.57,North,0,4.9,9.6,44,0.00,,,0.00,WUHU216HW,2013-04-21 14:23:00,
2013-04-21 10:28:00,47.7,26.7,30.57,North,0,5.8,8.3,44,0.00,,,0.00,WUHU216HW,2013-04-21 14:28:00,
2013-04-21 10:33:00,47.7,26.7,30.56,NNW,338,3.4,8.3,44,0.00,,,0.00,WUHU216HW,2013-04-21 14:33:00,
2013-04-21 10:38:00,47.7,26.7,30.56,NNW,338,3.4,4.7,44,0.00,,,0.00,WUHU216HW,2013-04-21 14:38:00,
2013-04-21 10:58:00,47.9,25.7,30.56,West,270,5.8,5.8,42,0.00,,,0.00,WUHU216HW,2013-04-21 14:58:00,
2013-04-21 11:03:00,47.5,26.0,30.56,NNW,338,1.6,8.9,43,0.00,,,0.00,WUHU216HW,2013-04-21 15:03:00,
2013-04-21 11:08:00,48.6,27.0,30.56,North,0,4.7,9.4,43,0.00,,,0.00,WUHU216HW,2013-04-21 15:08:00,
2013-04-21 11:13:00,49.3,27.6,30.56,North,0,5.6,9.4,43,0.00,,,0.00,WUHU216HW,2013-04-21 15:13:00,
2013-04-21 11:18:00,49.5,27.3,30.56,NW,315,5.8,8.5,42,0.00,,,0.00,WUHU216HW,2013-04-21 15:18:00,
2013-04-21 11:23:00,49.0,26.2,30.56,NNW,338,8.5,8.5,41,0.00,,,0.00,WUHU216HW,2013-04-21 15:23:00,
2013-04-21 11:28:00,48.6,25.9,30.56,WNW,293,2.5,8.5,41,0.00,,,0.00,WUHU216HW,2013-04-21 15:28:00,
2013-04-21 11:33:00,47.9,24.7,30.56,NNW,338,3.6,8.5,40,0.00,,,0.00,WUHU216HW,2013-04-21 15:33:00,
2013-04-21 11:38:00,47.3,24.8,30.56,NW,315,4.7,8.5,41,0.00,,,0.00,WUHU216HW,2013-04-21 15:38:00,
2013-04-21 11:43:00,47.3,25.3,30.56,SE,135,2.0,8.5,42,0.00,,,0.00,WUHU216HW,2013-04-21 15:43:00,
2013-04-21 11:48:00,47.3,25.3,30.56,North,0,1.6,6.9,42,0.00,,,0.00,WUHU216HW,2013-04-21 15:48:00,
2013-04-21 11:53:00,47.7,25.1,30.56,NW,315,4.0,8.3,41,0.00,,,0.00,WUHU216HW,2013-04-21 15:53:00,
2013-04-21 11:58:00,47.9,25.2,30.55,ENE,68,2.2,8.3,41,0.00,,,0.00,WUHU216HW,2013-04-21 15:58:00,
2013-04-21 12:03:00,48.1,25.4,30.55,NNW,338,4.0,7.8,41,0.00,,,0.00,WUHU216HW,2013-04-21 16:03:00,
2013-04-21 12:08:00,47.7,25.7,30.55,NW,315,4.7,7.8,42,0.00,,,0.00,WUHU216HW,2013-04-21 16:08:00,
2013-04-21 12:13:00,48.1,26.5,30.55,NNE,23,2.7,7.6,43,0.00,,,0.00,WUHU216HW,2013-04-21 16:13:00,
2013-04-21 12:18:00,48.4,26.3,30.55,North,0,2.5,6.9,42,0.00,,,0.00,WUHU216HW,2013-04-21 16:18:00,
2013-04-21 12:23:00,48.6,25.4,30.55,NNW,338,5.4,6.9,40,0.00,,,0.00,WUHU216HW,2013-04-21 16:23:00,
2013-04-21 12:28:00,48.4,25.8,30.55,North,0,2.9,9.2,41,0.00,,,0.00,WUHU216HW,2013-04-21 16:28:00,
2013-04-21 12:33:00,48.6,26.5,30.55,NW,315,4.7,9.2,42,0.00,,,0.00,WUHU216HW,2013-04-21 16:33:00,
2013-04-21 12:38:00,48.4,25.2,30.54,North,0,6.9,8.3,40,0.00,,,0.00,WUHU216HW,2013-04-21 16:38:00,
2013-04-21 12:43:00,48.2,25.6,30.54,West,270,4.3,9.6,41,0.00,,,0.00,WUHU216HW,2013-04-21 16:43:00,
2013-04-21 12:48:00,48.6,25.4,30.54,North,0,4.7,9.6,40,0.00,,,0.00,WUHU216HW,2013-04-21 16:48:00,
2013-04-21 12:53:00,48.6,24.7,30.54,NW,315,4.7,9.4,39,0.00,,,0.00,WUHU216HW,2013-04-21 16:53:00,
2013-04-21 12:58:00,48.4,24.5,30.53,North,0,8.5,8.5,39,0.00,,,0.00,WUHU216HW,2013-04-21 16:58:00,
2013-04-21 13:03:00,48.6,25.4,30.54,West,270,1.1,8.5,40,0.00,,,0.00,WUHU216HW,2013-04-21 17:03:00,
2013-04-21 13:08:00,48.4,25.2,30.53,North,0,4.0,8.5,40,0.00,,,0.00,WUHU216HW,2013-04-21 17:08:00,
2013-04-21 13:13:00,48.2,23.7,30.53,SW,225,1.1,9.4,38,0.00,,,0.00,WUHU216HW,2013-04-21 17:13:00,
2013-04-21 13:18:00,48.2,24.4,30.52,NNW,338,8.7,10.1,39,0.00,,,0.00,WUHU216HW,2013-04-21 17:18:00,
2013-04-21 13:23:00,49.0,25.7,30.52,North,0,8.5,10.1,40,0.00,,,0.00,WUHU216HW,2013-04-21 17:23:00,
2013-04-21 13:27:00,49.3,25.3,30.52,North,0,7.2,10.7,39,0.00,,,0.00,WUHU216HW,2013-04-21 17:27:00,
2013-04-21 13:32:00,49.7,26.3,30.52,North,0,5.4,10.7,40,0.00,,,0.00,WUHU216HW,2013-04-21 17:32:00,
2013-04-21 13:37:00,49.9,25.1,30.52,NNW,338,2.5,8.3,38,0.00,,,0.00,WUHU216HW,2013-04-21 17:37:00,
2013-04-21 13:42:00,50.0,25.9,30.52,NNW,338,4.3,8.7,39,0.00,,,0.00,WUHU216HW,2013-04-21 17:42:00,
2013-04-21 13:47:00,50.0,25.3,30.51,North,0,3.4,8.7,38,0.00,,,0.00,WUHU216HW,2013-04-21 17:47:00,
2013-04-21 13:52:00,50.0,26.6,30.51,WNW,293,4.7,8.7,40,0.00,,,0.00,WUHU216HW,2013-04-21 17:52:00,
2013-04-21 13:57:00,50.0,25.3,30.51,WNW,293,4.3,8.7,38,0.00,,,0.00,WUHU216HW,2013-04-21 17:57:00,
2013-04-21 14:02:00,50.0,25.3,30.50,SW,225,5.4,8.7,38,0.00,,,0.00,WUHU216HW,2013-04-21 18:02:00,
2013-04-21 14:07:00,50.4,26.3,30.50,NNW,338,3.4,5.6,39,0.00,,,0.00,WUHU216HW,2013-04-21 18:07:00,
2013-04-21 14:12:00,50.4,25.6,30.50,North,0,1.8,9.6,38,0.00,,,0.00,WUHU216HW,2013-04-21 18:12:00,
2013-04-21 14:17:00,50.8,26.7,30.50,NNW,338,4.0,9.6,39,0.00,,,0.00,WUHU216HW,2013-04-21 18:17:00,
2013-04-21 14:22:00,50.9,26.1,30.49,North,0,3.6,7.6,38,0.00,,,0.00,WUHU216HW,2013-04-21 18:22:00,
2013-04-21 14:27:00,51.3,26.4,30.49,NNE,23,2.9,7.6,38,0.00,,,0.00,WUHU216HW,2013-04-21 18:27:00,
2013-04-21 14:32:00,51.5,26.6,30.49,North,0,4.7,6.9,38,0.00,,,0.00,WUHU216HW,2013-04-21 18:32:00,
2013-04-21 14:37:00,51.5,25.9,30.49,NW,315,4.0,6.9,37,0.00,,,0.00,WUHU216HW,2013-04-21 18:37:00,
2013-04-21 14:42:00,51.8,27.5,30.48,NNW,338,0.4,6.9,39,0.00,,,0.00,WUHU216HW,2013-04-21 18:42:00,
2013-04-21 14:47:00,52.6,28.3,30.48,North,0,8.3,8.3,39,0.00,,,0.00,WUHU216HW,2013-04-21 18:47:00,
2013-04-21 14:52:00,52.9,25.1,30.48,NE,45,5.1,8.3,34,0.00,,,0.00,WUHU216HW,2013-04-21 18:52:00,
2013-04-21 14:57:00,52.9,26.5,30.47,SE,135,2.2,7.2,36,0.00,,,0.00,WUHU216HW,2013-04-21 18:57:00,
2013-04-21 15:02:00,53.1,27.4,30.47,North,0,6.9,9.8,37,0.00,,,0.00,WUHU216HW,2013-04-21 19:02:00,
2013-04-21 15:07:00,53.6,27.2,30.47,North,0,5.4,9.8,36,0.00,,,0.00,WUHU216HW,2013-04-21 19:07:00,
2013-04-21 15:12:00,54.0,27.5,30.47,NNE,23,2.5,9.8,36,0.00,,,0.00,WUHU216HW,2013-04-21 19:12:00,
2013-04-21 15:17:00,54.2,27.6,30.47,North,0,6.7,8.5,36,0.00,,,0.00,WUHU216HW,2013-04-21 19:17:00,
2013-04-21 15:22:00,54.0,25.4,30.46,WNW,293,3.6,8.5,33,0.00,,,0.00,WUHU216HW,2013-04-21 19:22:00,
2013-04-21 15:27:00,54.4,26.4,30.45,WNW,293,5.8,7.4,34,0.00,,,0.00,WUHU216HW,2013-04-21 19:27:00,
2013-04-21 15:32:00,54.2,26.2,30.45,NNW,338,7.6,7.6,34,0.00,,,0.00,WUHU216HW,2013-04-21 19:32:00,
2013-04-21 15:37:00,54.4,27.1,30.45,NW,315,7.2,10.7,35,0.00,,,0.00,WUHU216HW,2013-04-21 19:37:00,
2013-04-21 15:42:00,54.4,26.4,30.45,NW,315,1.3,10.7,34,0.00,,,0.00,WUHU216HW,2013-04-21 19:42:00,
2013-04-21 15:47:00,54.5,27.9,30.45,North,0,5.6,9.6,36,0.00,,,0.00,WUHU216HW,2013-04-21 19:47:00,
2013-04-21 15:52:00,54.7,26.0,30.45,NNW,338,8.3,12.8,33,0.00,,,0.00,WUHU216HW,2013-04-21 19:52:00,
2013-04-21 15:57:00,54.9,26.1,30.45,North,0,11.2,12.8,33,0.00,,,0.00,WUHU216HW,2013-04-21 19:57:00,
2013-04-21 16:02:00,54.9,26.8,30.44,NNW,338,2.5,12.5,34,0.00,,,0.00,WUHU216HW,2013-04-21 20:02:00,
2013-04-21 16:07:00,55.4,27.3,30.44,North,0,3.8,11.2,34,0.00,,,0.00,WUHU216HW,2013-04-21 20:07:00,
2013-04-21 16:12:00,55.8,26.9,30.44,North,0,4.7,12.8,33,0.00,,,0.00,WUHU216HW,2013-04-21 20:12:00,
2013-04-21 16:17:00,55.8,26.2,30.44,NNW,338,2.9,12.8,32,0.00,,,0.00,WUHU216HW,2013-04-21 20:17:00,
2013-04-21 16:22:00,56.0,27.1,30.44,North,0,4.0,12.8,33,0.00,,,0.00,WUHU216HW,2013-04-21 20:22:00,
2013-04-21 16:27:00,56.2,27.3,30.44,North,0,4.7,12.8,33,0.00,,,0.00,WUHU216HW,2013-04-21 20:27:00,
2013-04-21 16:32:00,56.2,25.8,30.44,North,0,4.7,12.8,31,0.00,,,0.00,WUHU216HW,2013-04-21 20:32:00,
2013-04-21 16:37:00,55.8,26.9,30.43,North,0,1.1,12.8,33,0.00,,,0.00,WUHU216HW,2013-04-21 20:37:00,
2013-04-21 16:42:00,56.0,27.1,30.43,NNW,338,2.2,12.8,33,0.00,,,0.00,WUHU216HW,2013-04-21 20:42:00,
2013-04-21 16:47:00,56.5,27.5,30.43,NW,315,1.3,12.8,33,0.00,,,0.00,WUHU216HW,2013-04-21 20:47:00,
2013-04-21 16:52:00,57.2,28.9,30.43,NNW,338,7.2,12.8,34,0.00,,,0.00,WUHU216HW,2013-04-21 20:52:00,
2013-04-21 16:57:00,57.1,26.6,30.43,NNW,338,6.5,12.8,31,0.00,,,0.00,WUHU216HW,2013-04-21 20:57:00,
2013-04-21 17:02:00,56.2,25.8,30.43,NNW,338,5.4,12.8,31,0.00,,,0.00,WUHU216HW,2013-04-21 21:02:00,
2013-04-21 17:07:00,56.2,27.3,30.43,North,0,3.6,11.2,33,0.00,,,0.00,WUHU216HW,2013-04-21 21:07:00,
2013-04-21 17:12:00,56.3,26.7,30.43,NW,315,4.7,9.2,32,0.00,,,0.00,WUHU216HW,2013-04-21 21:12:00,
2013-04-21 17:17:00,56.0,27.1,30.43,North,0,2.0,9.2,33,0.00,,,0.00,WUHU216HW,2013-04-21 21:17:00,
2013-04-21 17:20:00,56.0,26.4,30.43,NW,315,2.2,2.2,32,0.00,,,0.00,WUHU216HW,2013-04-21 21:20:00,
2013-04-21 17:22:00,56.0,26.4,30.43,NW,315,2.2,8.9,32,0.00,,,0.00,WUHU216HW,2013-04-21 21:22:00,
2013-04-21 17:27:00,56.0,26.4,30.43,NW,315,2.2,5.6,32,0.00,,,0.00,WUHU216HW,2013-04-21 21:27:00,
2013-04-21 18:00:00,56.0,26.4,30.42,WNW,293,2.7,2.7,32,0.00,,,0.00,WUHU216HW,2013-04-21 22:00:00,
2013-04-21 18:05:00,56.0,26.4,30.43,NNW,338,0.9,3.8,32,0.00,,,0.00,WUHU216HW,2013-04-21 22:05:00,
2013-04-21 18:10:00,56.3,26.7,30.43,North,0,5.4,5.4,32,0.00,,,0.00,WUHU216HW,2013-04-21 22:10:00,
2013-04-21 18:15:00,56.5,26.8,30.43,North,0,2.5,6.3,32,0.00,,,0.00,WUHU216HW,2013-04-21 22:15:00,
2013-04-21 18:20:00,56.9,26.5,30.43,ENE,68,2.2,6.3,31,0.00,,,0.00,WUHU216HW,2013-04-21 22:20:00,
2013-04-21 18:25:00,57.1,26.6,30.42,NW,315,4.3,6.3,31,0.00,,,0.00,WUHU216HW,2013-04-21 22:25:00,
2013-04-21 18:30:00,57.1,25.9,30.42,ENE,68,5.8,7.4,30,0.00,,,0.00,WUHU216HW,2013-04-21 22:30:00,
2013-04-21 18:35:00,56.7,27.0,30.42,North,0,2.5,7.4,32,0.00,,,0.00,WUHU216HW,2013-04-21 22:35:00,
2013-04-21 18:40:00,56.9,26.5,30.42,NNW,338,6.7,6.9,31,0.00,,,0.00,WUHU216HW,2013-04-21 22:40:00,
2013-04-21 18:45:00,56.9,26.5,30.42,North,0,3.4,9.8,31,0.00,,,0.00,WUHU216HW,2013-04-21 22:45:00,
2013-04-21 18:50:00,56.9,26.5,30.42,North,0,5.1,9.8,31,0.00,,,0.00,WUHU216HW,2013-04-21 22:50:00,
2013-04-21 18:55:00,57.1,26.6,30.42,North,0,4.0,7.6,31,0.00,,,0.00,WUHU216HW,2013-04-21 22:55:00,
2013-04-21 19:00:00,56.9,26.5,30.42,North,0,4.5,7.6,31,0.00,,,0.00,WUHU216HW,2013-04-21 23:00:00,
2013-04-21 19:05:00,57.1,26.6,30.42,North,0,3.4,6.9,31,0.00,,,0.00,WUHU216HW,2013-04-21 23:05:00,
2013-04-21 19:10:00,56.9,26.5,30.42,NNW,338,3.6,6.0,31,0.00,,,0.00,WUHU216HW,2013-04-21 23:10:00,
2013-04-21 19:15:00,56.5,26.8,30.42,NNE,23,2.0,8.3,32,0.00,,,0.00,WUHU216HW,2013-04-21 23:15:00,
2013-04-21 19:20:00,56.0,26.4,30.42,North,0,2.9,8.3,32,0.00,,,0.00,WUHU216HW,2013-04-21 23:20:00,
2013-04-21 19:25:00,55.4,25.9,30.42,NNE,23,6.0,6.0,32,0.00,,,0.00,WUHU216HW,2013-04-21 23:25:00,
2013-04-21 19:30:00,54.7,25.3,30.42,NE,45,2.2,6.3,32,0.00,,,0.00,WUHU216HW,2013-04-21 23:30:00,
2013-04-21 19:35:00,54.0,24.7,30.42,NNE,23,1.6,6.3,32,0.00,,,0.00,WUHU216HW,2013-04-21 23:35:00,
2013-04-21 19:40:00,53.6,25.1,30.42,North,0,1.1,3.1,33,0.00,,,0.00,WUHU216HW,2013-04-21 23:40:00,
2013-04-21 19:45:00,53.5,25.7,30.42,North,0,2.0,2.9,34,0.00,,,0.00,WUHU216HW,2013-04-21 23:45:00,
2013-04-21 19:50:00,53.5,25.7,30.43,North,0,4.0,4.7,34,0.00,,,0.00,WUHU216HW,2013-04-21 23:50:00,
2013-04-21 19:55:00,53.5,25.7,30.42,North,0,2.5,4.7,34,0.00,,,0.00,WUHU216HW,2013-04-21 23:55:00,
2013-04-21 20:00:00,53.1,25.3,30.42,North,0,1.8,4.9,34,0.00,,,0.00,WUHU216HW,2013-04-22 00:00:00,
2013-04-21 20:05:00,52.7,24.9,30.43,North,0,2.9,4.9,34,0.00,,,0.00,WUHU216HW,2013-04-22 00:05:00,
2013-04-21 20:10:00,52.4,24.7,30.43,North,0,4.5,4.7,34,0.00,,,0.00,WUHU216HW,2013-04-22 00:10:00,
2013-04-21 20:15:00,52.2,25.2,30.42,North,0,1.3,4.7,35,0.00,,,0.00,WUHU216HW,2013-04-22 00:15:00,
2013-04-21 20:20:00,52.0,25.7,30.43,NNW,338,2.0,4.7,36,0.00,,,0.00,WUHU216HW,2013-04-22 00:20:00,
2013-04-21 20:25:00,51.8,25.6,30.42,North,0,1.3,3.8,36,0.00,,,0.00,WUHU216HW,2013-04-22 00:25:00,
2013-04-21 20:30:00,51.5,25.9,30.43,NNW,338,0.4,4.0,37,0.00,,,0.00,WUHU216HW,2013-04-22 00:30:00,
2013-04-21 20:35:00,51.3,25.8,30.43,NNW,338,1.1,4.0,37,0.00,,,0.00,WUHU216HW,2013-04-22 00:35:00,
2013-04-21 20:40:00,51.3,26.4,30.43,North,0,0.9,1.1,38,0.00,,,0.00,WUHU216HW,2013-04-22 00:40:00,
2013-04-21 20:45:00,50.9,26.1,30.43,North,0,0.9,1.1,38,0.00,,,0.00,WUHU216HW,2013-04-22 00:45:00,
2013-04-21 20:50:00,50.9,26.7,30.43,North,0,0.4,1.1,39,0.00,,,0.00,WUHU216HW,2013-04-22 00:50:00,
2013-04-21 20:55:00,50.6,26.5,30.43,NNW,338,0.7,1.1,39,0.00,,,0.00,WUHU216HW,2013-04-22 00:55:00,
2013-04-21 21:00:00,50.4,27.0,30.43,NNW,338,0.9,1.1,40,0.00,,,0.00,WUHU216HW,2013-04-22 01:00:00,
2013-04-21 21:05:00,50.0,27.2,30.43,NNW,338,0.4,1.1,41,0.00,,,0.00,WUHU216HW,2013-04-22 01:05:00,
2013-04-21 21:10:00,49.7,26.9,30.43,NNW,338,0.7,1.1,41,0.00,,,0.00,WUHU216HW,2013-04-22 01:10:00,
2013-04-21 21:15:00,49.3,27.1,30.44,NNW,338,0.7,1.1,42,0.00,,,0.00,WUHU216HW,2013-04-22 01:15:00,
2013-04-21 21:20:00,48.8,27.2,30.44,NNW,338,0.4,1.1,43,0.00,,,0.00,WUHU216HW,2013-04-22 01:20:00,
2013-04-21 21:25:00,48.2,27.7,30.44,NNW,338,1.1,1.1,45,0.00,,,0.00,WUHU216HW,2013-04-22 01:25:00,
2013-04-21 21:30:00,47.9,27.4,30.44,North,0,0.9,1.3,45,0.00,,,0.00,WUHU216HW,2013-04-22 01:30:00,
2013-04-21 21:35:00,47.5,27.6,30.44,North,0,0.4,1.8,46,0.00,,,0.00,WUHU216HW,2013-04-22 01:35:00,
2013-04-21 21:40:00,47.2,27.3,30.44,North,0,0.4,1.8,46,0.00,,,0.00,WUHU216HW,2013-04-22 01:40:00,
2013-04-21 21:45:00,47.2,27.3,30.44,North,0,0.0,0.9,46,0.00,,,0.00,WUHU216HW,2013-04-22 01:45:00,
2013-04-21 21:50:00,47.0,27.6,30.44,North,0,0.4,0.9,47,0.00,,,0.00,WUHU216HW,2013-04-22 01:50:00,
2013-04-21 21:55:00,46.8,27.6,30.44,North,0,0.4,0.7,47,0.00,,,0.00,WUHU216HW,2013-04-22 01:55:00,
2013-04-21 22:00:00,46.3,27.5,30.44,North,0,0.9,1.1,48,0.00,,,0.00,WUHU216HW,2013-04-22 02:00:00,
2013-04-21 22:05:00,46.1,27.4,30.44,North,0,0.4,1.3,48,0.00,,,0.00,WUHU216HW,2013-04-22 02:05:00,
2013-04-21 22:10:00,45.7,27.6,30.44,North,0,0.4,1.3,49,0.00,,,0.00,WUHU216HW,2013-04-22 02:10:00,
2013-04-21 22:15:00,45.0,27.6,30.44,North,0,0.0,1.1,50,0.00,,,0.00,WUHU216HW,2013-04-22 02:15:00,
2013-04-21 22:20:00,44.8,27.4,30.44,North,0,1.1,1.1,50,0.00,,,0.00,WUHU216HW,2013-04-22 02:20:00,
2013-04-21 22:25:00,44.6,27.6,30.44,West,270,1.3,2.0,51,0.00,,,0.00,WUHU216HW,2013-04-22 02:25:00,
2013-04-21 22:30:00,44.5,27.9,30.43,NW,315,1.3,2.0,52,0.00,,,0.00,WUHU216HW,2013-04-22 02:30:00,
2013-04-21 22:35:00,44.3,27.7,30.43,NW,315,0.7,1.8,52,0.00,,,0.00,WUHU216HW,2013-04-22 02:35:00,
2013-04-21 22:40:00,44.1,27.5,30.43,NW,315,0.4,1.8,52,0.00,,,0.00,WUHU216HW,2013-04-22 02:40:00,
2013-04-21 22:45:00,44.3,28.2,30.43,NW,315,0.7,1.1,53,0.00,,,0.00,WUHU216HW,2013-04-22 02:45:00,
2013-04-21 22:50:00,44.1,28.0,30.43,NW,315,0.0,0.9,53,0.00,,,0.00,WUHU216HW,2013-04-22 02:50:00,
2013-04-21 22:55:00,43.9,27.9,30.43,NW,315,0.2,0.9,53,0.00,,,0.00,WUHU216HW,2013-04-22 02:55:00,
2013-04-21 23:00:00,43.7,27.7,30.43,WNW,293,0.2,1.1,53,0.00,,,0.00,WUHU216HW,2013-04-22 03:00:00,
2013-04-21 23:05:00,43.6,27.6,30.43,WNW,293,0.7,1.1,53,0.00,,,0.00,WUHU216HW,2013-04-22 03:05:00,
2013-04-21 23:10:00,43.0,27.5,30.43,NW,315,0.7,1.1,54,0.00,,,0.00,WUHU216HW,2013-04-22 03:10:00,
2013-04-21 23:15:00,42.8,27.3,30.43,NW,315,0.0,1.1,54,0.00,,,0.00,WUHU216HW,2013-04-22 03:15:00,
2013-04-21 23:20:00,42.5,26.9,30.43,NW,315,0.4,1.1,54,0.00,,,0.00,WUHU216HW,2013-04-22 03:20:00,
2013-04-21 23:25:00,41.8,26.3,30.43,NW,315,0.4,1.1,54,0.00,,,0.00,WUHU216HW,2013-04-22 03:25:00,
2013-04-21 23:30:00,41.0,26.9,30.43,WNW,293,0.4,1.1,57,0.00,,,0.00,WUHU216HW,2013-04-22 03:30:00,
2013-04-21 23:35:00,40.7,27.5,30.43,WNW,293,0.4,1.3,59,0.00,,,0.00,WUHU216HW,2013-04-22 03:35:00,
2013-04-21 23:40:00,40.3,27.1,30.42,WNW,293,0.9,1.3,59,0.00,,,0.00,WUHU216HW,2013-04-22 03:40:00,
2013-04-21 23:45:00,40.5,27.3,30.43,NNW,338,0.9,1.3,59,0.00,,,0.00,WUHU216HW,2013-04-22 03:45:00,
2013-04-21 23:50:00,40.7,27.0,30.42,NNW,338,0.4,1.3,58,0.00,,,0.00,WUHU216HW,2013-04-22 03:50:00,
2013-04-21 23:55:00,40.5,27.3,30.42,NNW,338,0.0,0.7,59,0.00,,,0.00,WUHU216HW,2013-04-22 03:55:00,